NORTHEAST SUFFOLK  -  Air Quality Alert Air Quality Alert        NORTHERN NASSAU  -  Air Quality Alert Air Quality Alert        NORTHERN QUEENS  -  Air Quality Alert Air Quality Alert        NORTHWEST SUFFOLK  -  Air Quality Alert Air Quality Alert        SOUTHEAST SUFFOLK  -  Air Quality Alert Air Quality Alert        SOUTHERN NASSAU  -  Air Quality Alert Air Quality Alert        SOUTHERN QUEENS  -  Air Quality Alert Air Quality Alert        SOUTHWEST SUFFOLK  -  Air Quality Alert Air Quality Alert      

Active alerts

Northern Queens
  Details for Northern Queens Air Quality Alert
Southern Queens
  Details for Southern Queens Air Quality Alert
Northern Nassau
  Details for Northern Nassau Air Quality Alert
Southern Nassau
  Details for Southern Nassau Air Quality Alert
Northwest Suffolk
  Details for Northwest Suffolk Air Quality Alert
Southwest Suffolk
  Details for Southwest Suffolk Air Quality Alert
Northeast Suffolk
  Details for Northeast Suffolk Air Quality Alert
Southeast Suffolk
  Details for Southeast Suffolk Air Quality Alert


WXM80 ListenWXM80 Stop

You find our weather info also at:

UK Metoffice

WeatherCloud

Weather Underground

Northeastern Weather Network

AWEKAS

Citizen Weather Observer Program (CWOP)

HAMweather, WeatherForYou, PWS Weather


Weather Underground History page Text

Daily Summary for October 3, 2017 Units:  English    Metric   Both
« Previous Day
Next Day »
Daily Weekly Monthly Yearly Custom
  High: Low: Average:
Temperature: 75.0 °F 49.3 °F 58.2 °F
Dew Point: 59.4 °F 46.4 °F 51.4 °F
Humidity: 98 % 50 % 80 %
Wind Speed: 4.8 mph 0.0 mph 0.5 mph
Wind Gust: 9.2 mph - -
Wind:- - ESE
Pressure: 30.53 in 30.38 in -
Precipitation: 0.00 in    
Historical Graphs
 
 
Tabular Data for October 3, 2017
Time Temperature Dew Point Pressure Wind Wind Speed Wind Gust Humidity Rainfall Rate (Hourly)
00:00 54.1 °F 50.0 °F 30.38 in Calm     86 % 0.00 in
00:06 54.0 °F 49.9 °F 30.38 in Calm     86 % 0.00 in
00:11 53.9 °F 49.8 °F 30.38 in Calm     86 % 0.00 in
00:16 53.8 °F 49.7 °F 30.38 in Calm     86 % 0.00 in
00:21 53.6 °F 49.5 °F 30.38 in Calm     86 % 0.00 in
00:26 53.5 °F 49.4 °F 30.38 in Calm     86 % 0.00 in
00:31 53.4 °F 49.3 °F 30.38 in Calm     86 % 0.00 in
00:36 53.3 °F 49.2 °F 30.39 in Calm     86 % 0.00 in
00:41 53.2 °F 49.1 °F 30.39 in Calm     86 % 0.00 in
00:46 53.0 °F 49.0 °F 30.39 in Calm     86 % 0.00 in
00:51 52.9 °F 48.8 °F 30.39 in Calm     86 % 0.00 in
00:56 52.8 °F 49.0 °F 30.39 in Calm     87 % 0.00 in
01:01 52.6 °F 48.8 °F 30.39 in Calm     87 % 0.00 in
01:06 52.5 °F 48.7 °F 30.39 in Calm     87 % 0.00 in
01:11 52.4 °F 48.6 °F 30.39 in Calm     87 % 0.00 in
01:16 52.3 °F 48.5 °F 30.39 in Calm     87 % 0.00 in
01:21 52.1 °F 48.7 °F 30.39 in Calm     88 % 0.00 in
01:24 52.1 °F 48.7 °F 30.38 in Calm   1.2 mph 88 % 0.00 in
01:29 51.9 °F 48.5 °F 30.38 in Calm     88 % 0.00 in
01:34 51.8 °F 48.7 °F 30.38 in Calm     89 % 0.00 in
01:39 51.7 °F 48.6 °F 30.39 in Calm     89 % 0.00 in
01:44 51.6 °F 48.5 °F 30.39 in Calm     89 % 0.00 in
01:49 51.5 °F 48.4 °F 30.39 in Calm     89 % 0.00 in
01:54 51.5 °F 48.7 °F 30.39 in Calm     90 % 0.00 in
01:59 51.4 °F 48.6 °F 30.39 in Calm     90 % 0.00 in
02:04 51.3 °F 48.5 °F 30.39 in Calm     90 % 0.00 in
02:09 51.3 °F 48.5 °F 30.39 in Calm     90 % 0.00 in
02:14 51.2 °F 48.7 °F 30.39 in Calm     91 % 0.00 in
02:20 51.1 °F 48.6 °F 30.39 in Calm     91 % 0.00 in
02:25 51.0 °F 48.5 °F 30.40 in Calm     91 % 0.00 in
02:35 50.9 °F 48.4 °F 30.40 in Calm     91 % 0.00 in
02:40 50.8 °F 48.3 °F 30.40 in Calm     91 % 0.00 in
02:45 50.8 °F 48.3 °F 30.40 in Calm     91 % 0.00 in
02:50 50.7 °F 48.2 °F 30.40 in Calm     91 % 0.00 in
02:55 50.6 °F 48.1 °F 30.40 in Calm     91 % 0.00 in
03:00 50.6 °F 48.1 °F 30.40 in Calm     91 % 0.00 in
03:05 50.5 °F 48.0 °F 30.40 in SE 0.1 mph 1.2 mph 91 % 0.00 in
03:10 50.4 °F 47.9 °F 30.40 in Calm     91 % 0.00 in
03:15 50.3 °F 47.8 °F 30.40 in Calm     91 % 0.00 in
03:20 50.3 °F 47.8 °F 30.40 in Calm     91 % 0.00 in
03:25 50.2 °F 47.7 °F 30.41 in Calm     91 % 0.00 in
03:30 50.1 °F 47.9 °F 30.40 in Calm     92 % 0.00 in
03:36 50.1 °F 47.9 °F 30.41 in Calm     92 % 0.00 in
03:41 50.0 °F 47.8 °F 30.41 in Calm     92 % 0.00 in
03:46 50.0 °F 48.1 °F 30.41 in Calm     93 % 0.00 in
03:51 50.0 °F 48.1 °F 30.41 in Calm     93 % 0.00 in
03:56 49.9 °F 48.0 °F 30.41 in Calm     93 % 0.00 in
04:01 49.9 °F 48.0 °F 30.41 in SE 0.3 mph 1.2 mph 93 % 0.00 in
04:06 49.9 °F 48.0 °F 30.41 in Calm   1.0 mph 93 % 0.00 in
04:11 49.8 °F 47.9 °F 30.41 in Calm   1.0 mph 93 % 0.00 in
04:16 49.8 °F 47.9 °F 30.41 in Calm     93 % 0.00 in
04:21 49.8 °F 47.8 °F 30.42 in Calm     93 % 0.00 in
04:26 49.7 °F 47.8 °F 30.41 in Calm   1.0 mph 93 % 0.00 in
04:31 49.7 °F 47.8 °F 30.41 in Calm   1.0 mph 93 % 0.00 in
04:36 49.7 °F 47.8 °F 30.41 in Calm   1.0 mph 93 % 0.00 in
04:41 49.7 °F 47.8 °F 30.41 in Calm   1.0 mph 93 % 0.00 in
04:46 49.7 °F 47.8 °F 30.41 in Calm     93 % 0.00 in
04:51 49.6 °F 47.7 °F 30.42 in Calm     93 % 0.00 in
04:56 49.6 °F 47.7 °F 30.42 in Calm     93 % 0.00 in
05:01 49.5 °F 47.6 °F 30.41 in Calm     93 % 0.00 in
05:06 49.5 °F 47.6 °F 30.42 in Calm     93 % 0.00 in
05:11 49.4 °F 47.5 °F 30.42 in Calm     93 % 0.00 in
05:16 49.4 °F 47.5 °F 30.42 in Calm     93 % 0.00 in
05:21 49.4 °F 47.5 °F 30.42 in Calm     93 % 0.00 in
05:26 49.3 °F 47.4 °F 30.42 in Calm   1.2 mph 93 % 0.00 in
05:31 49.3 °F 47.4 °F 30.42 in Calm   1.2 mph 93 % 0.00 in
05:36 49.3 °F 47.4 °F 30.43 in Calm   1.2 mph 93 % 0.00 in
05:41 49.3 °F 47.4 °F 30.43 in Calm     93 % 0.00 in
05:46 49.3 °F 47.4 °F 30.43 in Calm     93 % 0.00 in
05:51 49.3 °F 47.6 °F 30.43 in Calm     94 % 0.00 in
05:56 49.3 °F 47.6 °F 30.43 in Calm     94 % 0.00 in
06:01 49.3 °F 47.6 °F 30.43 in Calm     94 % 0.00 in
06:05 49.3 °F 47.6 °F 30.43 in Calm     94 % 0.00 in
06:10 49.3 °F 47.6 °F 30.43 in Calm     94 % 0.00 in
06:16 49.3 °F 47.6 °F 30.43 in Calm     94 % 0.00 in
06:21 49.4 °F 47.7 °F 30.44 in Calm     94 % 0.00 in
06:26 49.4 °F 47.7 °F 30.44 in Calm     94 % 0.00 in
06:31 49.4 °F 48.1 °F 30.44 in Calm     95 % 0.00 in
06:36 49.5 °F 48.1 °F 30.44 in Calm     95 % 0.00 in
06:41 49.6 °F 48.2 °F 30.45 in Calm     95 % 0.00 in
06:46 49.6 °F 48.2 °F 30.45 in Calm     95 % 0.00 in
06:51 49.7 °F 48.3 °F 30.45 in Calm     95 % 0.00 in
06:56 49.7 °F 48.3 °F 30.45 in Calm     95 % 0.00 in
07:01 49.7 °F 48.3 °F 30.45 in Calm     95 % 0.00 in
07:06 49.7 °F 48.3 °F 30.46 in Calm     95 % 0.00 in
07:11 49.7 °F 48.3 °F 30.46 in Calm     95 % 0.00 in
07:16 49.8 °F 48.4 °F 30.47 in Calm     95 % 0.00 in
07:21 49.9 °F 48.5 °F 30.47 in Calm     95 % 0.00 in
07:26 50.0 °F 48.6 °F 30.47 in Calm     95 % 0.00 in
07:31 50.0 °F 48.6 °F 30.47 in Calm     95 % 0.00 in
07:36 50.2 °F 49.1 °F 30.47 in Calm     96 % 0.00 in
07:41 50.4 °F 49.3 °F 30.47 in Calm     96 % 0.00 in
07:46 50.6 °F 49.5 °F 30.47 in Calm     96 % 0.00 in
07:51 50.8 °F 49.7 °F 30.48 in Calm   1.2 mph 96 % 0.00 in
07:56 51.0 °F 49.9 °F 30.48 in SE 0.1 mph 1.2 mph 96 % 0.00 in
08:01 51.3 °F 50.2 °F 30.48 in Calm     96 % 0.00 in
08:06 51.7 °F 50.9 °F 30.48 in SE 0.2 mph 2.3 mph 97 % 0.00 in
08:11 52.2 °F 51.4 °F 30.48 in SE 0.2 mph 1.2 mph 97 % 0.00 in
08:16 52.9 °F 52.1 °F 30.48 in Calm     97 % 0.00 in
08:21 53.5 °F 52.7 °F 30.48 in Calm     97 % 0.00 in
08:26 54.1 °F 53.3 °F 30.48 in Calm   1.2 mph 97 % 0.00 in
08:31 54.6 °F 53.8 °F 30.48 in Calm     97 % 0.00 in
08:36 55.1 °F 54.3 °F 30.48 in Calm     97 % 0.00 in
08:41 55.5 °F 54.7 °F 30.49 in SE 0.1 mph 1.2 mph 97 % 0.00 in
08:46 55.9 °F 55.3 °F 30.48 in Calm   1.2 mph 98 % 0.00 in
08:51 56.2 °F 55.4 °F 30.49 in SE 1.2 mph 1.2 mph 97 % 0.00 in
08:56 56.5 °F 55.9 °F 30.49 in SE 0.2 mph 2.3 mph 98 % 0.00 in
09:01 56.8 °F 56.0 °F 30.49 in Calm   1.2 mph 97 % 0.00 in
09:06 57.1 °F 56.5 °F 30.49 in SE 0.3 mph   98 % 0.00 in
09:11 57.3 °F 56.5 °F 30.49 in SE 0.3 mph 2.3 mph 97 % 0.00 in
09:16 57.5 °F 56.7 °F 30.49 in SE 0.6 mph 2.3 mph 97 % 0.00 in
09:22 57.7 °F 57.1 °F 30.49 in SE 0.2 mph 1.2 mph 98 % 0.00 in
09:27 57.9 °F 57.1 °F 30.49 in ESE 0.3 mph 1.2 mph 97 % 0.00 in
09:32 58.2 °F 57.4 °F 30.49 in ESE 0.1 mph 1.2 mph 97 % 0.00 in
09:37 58.5 °F 57.7 °F 30.50 in ESE 0.2 mph 1.2 mph 97 % 0.00 in
09:42 58.8 °F 58.0 °F 30.49 in ESE 0.3 mph 1.2 mph 97 % 0.00 in
09:47 59.1 °F 58.0 °F 30.50 in SE 1.3 mph 3.5 mph 96 % 0.00 in
09:52 59.3 °F 57.6 °F 30.50 in Calm   1.2 mph 94 % 0.00 in
09:57 59.8 °F 57.5 °F 30.50 in SE 0.6 mph 3.5 mph 92 % 0.00 in
10:07 61.0 °F 57.1 °F 30.50 in SE 0.2 mph 3.5 mph 87 % 0.00 in
10:12 61.4 °F 57.2 °F 30.50 in SE 0.5 mph 3.5 mph 86 % 0.00 in
10:17 61.8 °F 57.6 °F 30.50 in Calm   1.2 mph 86 % 0.00 in
10:22 62.3 °F 57.7 °F 30.50 in Calm   1.0 mph 85 % 0.00 in
10:27 62.8 °F 56.9 °F 30.50 in SSE 2.4 mph 9.0 mph 81 % 0.00 in
10:32 63.3 °F 56.3 °F 30.51 in SSE 0.7 mph 4.0 mph 78 % 0.00 in
10:37 63.7 °F 57.1 °F 30.50 in SE 0.7 mph 3.5 mph 79 % 0.00 in
10:42 64.1 °F 56.0 °F 30.50 in SE 1.2 mph 5.8 mph 75 % 0.00 in
10:47 64.3 °F 55.8 °F 30.51 in SE 0.4 mph 2.0 mph 74 % 0.00 in
10:52 64.4 °F 56.3 °F 30.51 in ENE 0.1 mph 1.2 mph 75 % 0.00 in
10:57 64.7 °F 56.6 °F 30.51 in NE 0.5 mph 2.3 mph 75 % 0.00 in
11:02 65.4 °F 56.9 °F 30.50 in East 0.6 mph 2.3 mph 74 % 0.00 in
11:07 65.7 °F 56.4 °F 30.51 in Calm   1.2 mph 72 % 0.00 in
11:12 66.4 °F 58.2 °F 30.50 in SE 0.6 mph 1.2 mph 75 % 0.00 in
11:17 67.4 °F 58.4 °F 30.50 in Calm   1.2 mph 73 % 0.00 in
11:22 68.0 °F 58.2 °F 30.50 in Calm     71 % 0.00 in
11:27 68.9 °F 59.1 °F 30.50 in NE 1.1 mph 2.3 mph 71 % 0.00 in
11:32 70.0 °F 59.0 °F 30.50 in ESE 0.6 mph 2.3 mph 68 % 0.00 in
11:38 71.0 °F 59.1 °F 30.50 in SE 0.2 mph 1.2 mph 66 % 0.00 in
11:43 72.3 °F 59.0 °F 30.50 in SE 0.4 mph 2.3 mph 63 % 0.00 in
11:48 73.0 °F 59.2 °F 30.49 in Calm   1.2 mph 62 % 0.00 in
11:53 73.9 °F 58.7 °F 30.50 in East 1.2 mph 3.5 mph 59 % 0.00 in
11:58 74.0 °F 57.3 °F 30.49 in NE 1.0 mph 5.8 mph 56 % 0.00 in
12:03 73.2 °F 56.1 °F 30.49 in SE 2.3 mph 3.5 mph 55 % 0.00 in
12:08 73.0 °F 57.8 °F 30.49 in NE 0.1 mph 2.3 mph 59 % 0.00 in
12:13 73.5 °F 58.8 °F 30.49 in SE 0.8 mph 3.5 mph 60 % 0.00 in
12:18 74.2 °F 59.4 °F 30.49 in Calm   2.3 mph 60 % 0.00 in
12:23 74.7 °F 58.9 °F 30.49 in NE 0.9 mph 2.3 mph 58 % 0.00 in
12:28 75.0 °F 58.2 °F 30.49 in NNE 1.5 mph 2.3 mph 56 % 0.00 in
12:33 74.6 °F 57.4 °F 30.49 in Calm   1.2 mph 55 % 0.00 in
12:38 74.0 °F 57.3 °F 30.48 in NE 3.6 mph 6.9 mph 56 % 0.00 in
12:43 73.8 °F 55.6 °F 30.48 in SSE 1.2 mph 6.9 mph 53 % 0.00 in
12:48 73.9 °F 57.7 °F 30.48 in East 0.8 mph 2.3 mph 57 % 0.00 in
12:53 74.3 °F 58.1 °F 30.48 in Calm   1.2 mph 57 % 0.00 in
12:58 74.8 °F 59.0 °F 30.49 in SE 0.3 mph 3.5 mph 58 % 0.00 in
13:03 74.8 °F 55.5 °F 30.48 in Calm   3.5 mph 51 % 0.00 in
13:08 74.7 °F 54.8 °F 30.48 in SSE 0.9 mph 3.5 mph 50 % 0.00 in
13:13 74.5 °F 56.8 °F 30.49 in SSE 0.9 mph 3.5 mph 54 % 0.00 in
13:19 74.4 °F 55.6 °F 30.48 in SE 0.1 mph 3.5 mph 52 % 0.00 in
13:24 74.2 °F 58.5 °F 30.48 in East 0.3 mph 2.3 mph 58 % 0.00 in
13:29 73.9 °F 58.7 °F 30.48 in NE 2.8 mph 2.8 mph 59 % 0.00 in
13:34 73.1 °F 57.4 °F 30.48 in ENE 2.0 mph 3.5 mph 58 % 0.00 in
13:39 72.1 °F 57.0 °F 30.47 in NE 1.7 mph 6.9 mph 59 % 0.00 in
13:44 71.2 °F 57.1 °F 30.47 in ENE 1.5 mph 3.5 mph 61 % 0.00 in
13:49 70.3 °F 57.1 °F 30.47 in ENE 2.7 mph 4.0 mph 63 % 0.00 in
13:54 69.7 °F 57.8 °F 30.47 in ENE 1.1 mph 3.5 mph 66 % 0.00 in
13:59 69.4 °F 57.5 °F 30.47 in ENE 0.9 mph 3.5 mph 66 % 0.00 in
14:04 69.1 °F 57.7 °F 30.46 in ENE 0.9 mph 2.3 mph 67 % 0.00 in
14:09 68.8 °F 57.8 °F 30.46 in ENE 1.4 mph 2.3 mph 68 % 0.00 in
14:14 68.5 °F 57.1 °F 30.46 in NE 1.4 mph 3.5 mph 67 % 0.00 in
14:19 68.4 °F 57.4 °F 30.46 in ENE 2.5 mph 5.0 mph 68 % 0.00 in
14:24 68.1 °F 57.9 °F 30.46 in East 1.1 mph 2.3 mph 70 % 0.00 in
14:29 67.9 °F 57.4 °F 30.46 in NE 0.8 mph 2.3 mph 69 % 0.00 in
14:34 67.6 °F 57.5 °F 30.46 in ENE 0.6 mph 2.3 mph 70 % 0.00 in
14:39 67.5 °F 57.8 °F 30.46 in ENE 0.7 mph 2.3 mph 71 % 0.00 in
14:41 67.5 °F 57.8 °F 30.45 in ENE 1.4 mph 2.3 mph 71 % 0.00 in
14:46 67.9 °F 58.1 °F 30.45 in ENE 0.8 mph 2.3 mph 71 % 0.00 in
14:51 68.4 °F 57.8 °F 30.45 in ENE 1.6 mph 3.5 mph 69 % 0.00 in
14:56 68.8 °F 58.2 °F 30.45 in ENE 1.6 mph 3.5 mph 69 % 0.00 in
15:02 68.7 °F 57.7 °F 30.45 in ENE 2.2 mph 3.5 mph 68 % 0.00 in
15:07 68.5 °F 57.5 °F 30.45 in ENE 2.1 mph 3.5 mph 68 % 0.00 in
15:12 68.5 °F 58.3 °F 30.44 in ENE 0.3 mph 3.5 mph 70 % 0.00 in
15:17 68.5 °F 57.9 °F 30.44 in ENE 1.1 mph 2.3 mph 69 % 0.00 in
15:22 68.2 °F 57.6 °F 30.44 in ENE 1.4 mph 2.3 mph 69 % 0.00 in
15:27 67.9 °F 57.8 °F 30.44 in ENE 0.2 mph 1.2 mph 70 % 0.00 in
15:32 67.6 °F 57.5 °F 30.44 in NE 1.6 mph 3.0 mph 70 % 0.00 in
15:37 67.4 °F 57.3 °F 30.44 in NE 1.2 mph 3.5 mph 70 % 0.00 in
15:42 67.3 °F 57.6 °F 30.43 in ENE 3.2 mph 4.6 mph 71 % 0.00 in
15:47 67.2 °F 57.1 °F 30.43 in ENE 3.4 mph 4.6 mph 70 % 0.00 in
15:52 67.3 °F 55.1 °F 30.44 in SSE 2.6 mph 6.9 mph 65 % 0.00 in
15:57 67.2 °F 51.9 °F 30.44 in SE 4.8 mph 9.2 mph 58 % 0.00 in
16:02 67.2 °F 51.9 °F 30.44 in SE 3.1 mph 4.6 mph 58 % 0.00 in
16:07 67.1 °F 51.4 °F 30.43 in SE 2.4 mph 6.9 mph 57 % 0.00 in
16:12 67.0 °F 51.7 °F 30.43 in SE 2.1 mph 5.8 mph 58 % 0.00 in
16:17 66.9 °F 51.2 °F 30.43 in SE 3.5 mph 7.0 mph 57 % 0.00 in
16:22 66.8 °F 51.5 °F 30.43 in ESE 1.8 mph 3.5 mph 58 % 0.00 in
16:27 66.7 °F 51.0 °F 30.43 in ESE 2.5 mph 3.0 mph 57 % 0.00 in
16:32 66.5 °F 50.8 °F 30.43 in SE 4.7 mph 7.0 mph 57 % 0.00 in
16:37 66.3 °F 51.1 °F 30.43 in SE 1.3 mph 4.0 mph 58 % 0.00 in
16:42 66.2 °F 50.0 °F 30.43 in SE 1.0 mph 3.5 mph 56 % 0.00 in
16:48 66.0 °F 49.8 °F 30.43 in SE 1.8 mph 5.8 mph 56 % 0.00 in
16:53 65.8 °F 50.1 °F 30.43 in SSE 3.6 mph 7.0 mph 57 % 0.00 in
16:58 65.6 °F 50.0 °F 30.43 in SE 1.0 mph 3.5 mph 57 % 0.00 in
17:03 65.4 °F 49.8 °F 30.43 in SSE 2.0 mph 6.9 mph 57 % 0.00 in
17:08 65.3 °F 50.1 °F 30.43 in SE 2.0 mph 6.9 mph 58 % 0.00 in
17:13 65.2 °F 49.1 °F 30.43 in SE 2.7 mph 8.1 mph 56 % 0.00 in
17:16 65.0 °F 48.4 °F 30.43 in SE 3.1 mph 5.8 mph 55 % 0.00 in
17:21 64.8 °F 48.7 °F 30.43 in SE 1.8 mph 5.0 mph 56 % 0.00 in
17:26 64.6 °F 48.5 °F 30.43 in SE 2.3 mph 8.1 mph 56 % 0.00 in
17:31 64.4 °F 48.4 °F 30.43 in ESE 3.3 mph 6.9 mph 56 % 0.00 in
17:36 64.3 °F 47.8 °F 30.43 in SSE 3.7 mph 5.8 mph 55 % 0.00 in
17:41 64.1 °F 47.6 °F 30.43 in SE 1.2 mph 3.5 mph 55 % 0.00 in
17:46 63.9 °F 48.4 °F 30.43 in SE 3.1 mph 4.6 mph 57 % 0.00 in
17:51 63.8 °F 48.7 °F 30.43 in South 2.1 mph 3.5 mph 58 % 0.00 in
17:57 63.6 °F 49.0 °F 30.44 in SE 2.4 mph 4.6 mph 59 % 0.00 in
18:02 63.5 °F 49.8 °F 30.44 in SE 1.5 mph 4.0 mph 61 % 0.00 in
18:07 63.3 °F 49.6 °F 30.44 in Calm   1.2 mph 61 % 0.00 in
18:12 63.2 °F 50.4 °F 30.44 in SE 0.7 mph 2.0 mph 63 % 0.00 in
18:17 63.0 °F 50.2 °F 30.44 in SE 0.3 mph 2.3 mph 63 % 0.00 in
18:22 62.7 °F 50.3 °F 30.44 in SE 0.7 mph 2.0 mph 64 % 0.00 in
18:27 62.4 °F 50.5 °F 30.44 in Calm     65 % 0.00 in
18:32 62.2 °F 50.7 °F 30.44 in Calm     66 % 0.00 in
18:37 61.9 °F 50.8 °F 30.44 in Calm     67 % 0.00 in
18:42 61.6 °F 50.5 °F 30.45 in Calm     67 % 0.00 in
18:47 61.3 °F 50.6 °F 30.45 in Calm     68 % 0.00 in
18:52 60.9 °F 50.3 °F 30.44 in Calm     68 % 0.00 in
18:57 60.5 °F 50.7 °F 30.44 in Calm     70 % 0.00 in
19:02 60.0 °F 50.2 °F 30.44 in Calm     70 % 0.00 in
19:07 59.6 °F 50.2 °F 30.44 in Calm     71 % 0.00 in
19:12 59.3 °F 50.3 °F 30.45 in SE 0.4 mph 1.0 mph 72 % 0.00 in
19:17 58.9 °F 50.3 °F 30.45 in SE 0.7 mph 1.2 mph 73 % 0.00 in
19:22 58.7 °F 50.1 °F 30.45 in SE 0.2 mph 1.2 mph 73 % 0.00 in
19:27 58.4 °F 50.1 °F 30.44 in Calm     74 % 0.00 in
19:32 58.2 °F 50.0 °F 30.44 in Calm   1.2 mph 74 % 0.00 in
19:37 58.0 °F 50.1 °F 30.44 in Calm     75 % 0.00 in
19:42 57.7 °F 49.8 °F 30.44 in Calm     75 % 0.00 in
19:47 57.6 °F 50.1 °F 30.44 in SE 0.3 mph 2.3 mph 76 % 0.00 in
19:52 57.4 °F 49.9 °F 30.44 in SE 0.1 mph 1.2 mph 76 % 0.00 in
20:02 57.0 °F 49.9 °F 30.43 in SE 0.3 mph 2.0 mph 77 % 0.00 in
20:08 56.9 °F 49.8 °F 30.44 in Calm     77 % 0.00 in
20:13 56.8 °F 49.7 °F 30.43 in Calm     77 % 0.00 in
20:18 56.7 °F 49.9 °F 30.43 in Calm     78 % 0.00 in
20:23 56.5 °F 50.1 °F 30.43 in Calm     79 % 0.00 in
20:28 56.3 °F 49.9 °F 30.43 in Calm     79 % 0.00 in
20:33 56.0 °F 49.6 °F 30.43 in Calm     79 % 0.00 in
20:38 55.8 °F 49.4 °F 30.43 in Calm     79 % 0.00 in
20:43 55.5 °F 49.4 °F 30.43 in Calm     80 % 0.00 in
20:48 55.3 °F 49.2 °F 30.43 in Calm     80 % 0.00 in
20:53 55.1 °F 49.0 °F 30.43 in Calm     80 % 0.00 in
20:58 54.8 °F 49.1 °F 30.42 in Calm     81 % 0.00 in
21:03 54.5 °F 48.8 °F 30.43 in Calm     81 % 0.00 in
21:08 54.3 °F 48.9 °F 30.42 in Calm     82 % 0.00 in
21:14 54.0 °F 48.6 °F 30.42 in Calm     82 % 0.00 in
21:19 53.8 °F 48.4 °F 30.42 in Calm     82 % 0.00 in
21:24 53.6 °F 48.6 °F 30.42 in Calm     83 % 0.00 in
21:29 53.3 °F 48.3 °F 30.42 in Calm     83 % 0.00 in
21:34 53.1 °F 48.4 °F 30.42 in Calm     84 % 0.00 in
21:44 52.7 °F 48.0 °F 30.43 in Calm     84 % 0.00 in
21:49 52.5 °F 47.8 °F 30.42 in Calm     84 % 0.00 in
21:54 52.4 °F 48.0 °F 30.42 in Calm     85 % 0.00 in
21:59 52.2 °F 47.5 °F 30.42 in Calm     84 % 0.00 in
22:04 52.0 °F 47.6 °F 30.42 in Calm     85 % 0.00 in
22:09 51.9 °F 47.5 °F 30.42 in Calm     85 % 0.00 in
22:14 51.7 °F 47.6 °F 30.53 in Calm     86 % 0.00 in
22:19 51.6 °F 47.5 °F 30.53 in Calm     86 % 0.00 in
22:24 51.4 °F 47.4 °F 30.53 in Calm     86 % 0.00 in
22:29 51.3 °F 47.3 °F 30.53 in Calm     86 % 0.00 in
22:34 51.1 °F 47.1 °F 30.53 in Calm     86 % 0.00 in
22:39 51.0 °F 47.0 °F 30.53 in Calm     86 % 0.00 in
22:44 50.8 °F 46.8 °F 30.53 in Calm     86 % 0.00 in
22:46 50.8 °F 46.8 °F 30.53 in Calm     86 % 0.00 in
22:51 50.7 °F 47.0 °F 30.53 in Calm     87 % 0.00 in
22:56 50.5 °F 46.8 °F 30.53 in Calm     87 % 0.00 in
23:01 50.4 °F 46.7 °F 30.52 in Calm     87 % 0.00 in
23:06 50.3 °F 46.6 °F 30.52 in Calm     87 % 0.00 in
23:11 50.2 °F 46.5 °F 30.52 in Calm     87 % 0.00 in
23:17 50.1 °F 46.4 °F 30.52 in Calm     87 % 0.00 in
23:22 50.0 °F 46.6 °F 30.40 in Calm     88 % 0.00 in
23:27 50.0 °F 46.6 °F 30.52 in Calm     88 % 0.00 in
23:32 49.9 °F 46.5 °F 30.52 in Calm     88 % 0.00 in
23:37 49.8 °F 46.7 °F 30.52 in Calm     89 % 0.00 in
23:42 49.9 °F 47.1 °F 30.52 in Calm     90 % 0.00 in
23:47 49.9 °F 47.1 °F 30.52 in Calm     90 % 0.00 in
23:52 49.9 °F 47.4 °F 30.52 in Calm     91 % 0.00 in
23:57 50.1 °F 47.9 °F 30.52 in Calm     92 % 0.00 in
Crab Meadow Weather
Compliments of Weather Underground - 3 mb

Script developed by  Jim McMurry - jmcmurry@mwt.net Adapted for the template by  Wim van der Kuil - Leuven-Template.eu

Heat Index: The heat index combines air temperature and dew point in an attempt to determine the human-perceived equivalent temperature - how hot it feels. The human body normally cools itself by sweating, which evaporates and carries heat away from the body. However, when the relative humidity is high the evaporation rate is reduced, so heat is removed from the body at a lower rate causing it to retain more heat than it would in dry air.